DMSP 5D-2 F13 DEB, 40410

Orbit data source: Space-Track

DMSP 5D-2 F13 DEB, 40410 is space debris in SSO originally from a launch on Fri, 24 Mar 1995 UTC launched from the Air Force Western Test Range (AFWTR). Debris objects in space refer to the collection of defunct objects orbiting the Earth. Examples of debris include non-operational satellites, rocket bodies, and fragments generated from explosions, collisions, or faulty payload assembly.

Loading next visibility...
Identifier
40410, 1995-015X
Orbit
SSO
Country
Flag of USUS
Related business
Manufacturer
Unknown
Mission
Spacecraft
Bus & Motor
Unknown
Mass
Unknown
Launch date (UTC)
1995-03-24 (31 years ago)
Launch vehicle
Unknown
Launch site
Air Force Western Test Range (AFWTR)
Object type
Payload
Rocket body
Debris
Shape & HBR
Unknown shape, 0.1 m
Radar Cross Section
Small (<0.1 m²)

Expand to show TLE details & history
Last TLE update: 19 hours ago

TLE from 19 hours ago
0 DMSP 5D-2 F13 DEB
1 40410U 95015X   25349.50864148  .00001936  00000-0  84455-3 0  9996
2 40410  98.8122   9.8684 0017489  40.4691 319.7785 14.25028930558506
Epoch: 2025-12-15T12:12Z
TLE epoch observation values (Epoch: 2025-12-15T12:12:26.623Z)
Latitude
-0.00006°
Longitude
102.35129°
Altitude
801.724 km
Speed
7.458 km/s
True Right ascension
00h 39m 28s
True Declination
0° 00' 00"
Sunlit
Object was in daylight at epoch
Visualization orbit readout
Latitude
Unknown
Longitude
Unknown
Altitude
Unknown
Speed
Unknown
Apparent Right ascension
Unknown
Apparent Declination
Unknown
Sunlit
N/A
Visualization observer readout
Local Sidereal Time
06:16:27
Azimuth
Unknown
Elevation
Unknown
Doppler factor
Unknown
Orbital elements
Apogee altitude
818.116 km
Perigee altitude
792.989 km
Semi-major axis
7,183.689 km
Eccentricity
0.00175
Inclination
98.8122°
RAAN
9.8684°
Arg. of periapsis
40.4691°
True anomaly
319.64887°
Mean anomaly
319.7785°
Eccentric anomaly
319.71371°
Mean motion
3.56469 °/min
Orbital period
100.99 mins
BSTAR
0.00084455
Loading maneuver chart data...
Computing Atmospheric mass density...

Documentation

Showing up to 5 results
|